Grant County, OR

1:36 AM PDT on June 18, 2018 (GMT -0700)
Grant County Regional

Weather History for KGCD - October, 2017

Change the Weather History Date:

Sunday, October 22, 2017

  Actual Average (KBNO) Record (KBNO)
Temperature  
Mean Temperature 52 °F -  
Max Temperature 59 °F 56 °F 80 °F (2003)
Min Temperature 44 °F 23 °F 7 °F (1980)
Degree Days  
Heating Degree Days 14    
Growing Degree Days 2 (Base 50)    
Moisture  
Dew Point 42 °F    
Average Humidity 71    
Maximum Humidity 93    
Minimum Humidity 42    
Precipitation  
Precipitation 0.04 in - - ()
Sea Level Pressure  
Sea Level Pressure 30.25 in    
Wind  
Wind Speed 13 mph (SW)    
Max Wind Speed 33 mph    
Max Gust Speed 50 mph    
Visibility 10 miles    
Events Rain    
Averages and records for this station are not official NWS values.
T = Trace of Precipitation, MM = Missing Value Source: NWS Daily Summary

Daily Weather History Graph

Daily Weather History Graph

Search for Another Location

Airport or City:

Astronomy

Oct. 22, 2017 Rise Set
Actual Time 7:20 AM PDT 5:59 PM PDT
Civil Twilight 6:50 AM PDT 6:29 PM PDT
Nautical Twilight 6:16 AM PDT 7:02 PM PDT
Astronomical Twilight 5:43 AM PDT 7:36 PM PDT
Moon 10:02 AM PDT (10/22) 8:06 PM PDT (10/22)
Length of Visible Light 11h 38m
Length of Day
10h 39m
Waxing Crescent, 9% of the Moon is Illuminated
Oct 22
Waxing Crescent
Oct 27
First Quarter
Nov 3
Full
Nov 10
Last Quarter
Nov 18
New

Hourly Weather History & Observations

Time (PDT) Temp. Windchill Dew Point Humidity Pressure Visibility Wind Dir Wind Speed Gust Speed Precip Events Conditions
12:15 AM 50.2 °F - 42.4 °F 75% 30.05 in 10.0 mi SW 20.7 mph 31.1 mph N/A   Overcast
12:35 AM 50.7 °F - 42.3 °F 73% 30.05 in 10.0 mi West 3.5 mph 25.3 mph N/A   Overcast
12:55 AM 50.5 °F - 42.3 °F 73% 30.06 in 10.0 mi WSW 9.2 mph 25.3 mph N/A   Overcast
1:15 AM 51.8 °F - 41.9 °F 69% 30.07 in 10.0 mi WSW 8.1 mph 16.1 mph N/A   Overcast
1:35 AM 53.4 °F - 41.0 °F 63% 30.04 in 10.0 mi SSW 33.4 mph 44.9 mph N/A   Scattered Clouds
1:55 AM 53.8 °F - 41.2 °F 62% 30.06 in 10.0 mi SSW 28.8 mph 47.2 mph N/A   Scattered Clouds
2:15 AM 53.2 °F - 41.0 °F 63% 30.05 in 10.0 mi South 28.8 mph 48.3 mph N/A   Overcast
2:35 AM 53.2 °F - 41.0 °F 63% 30.06 in 10.0 mi South 32.2 mph 42.6 mph N/A   Overcast
2:55 AM 53.8 °F - 41.0 °F 62% 30.06 in 10.0 mi SSW 24.2 mph 49.5 mph N/A   Overcast
3:15 AM 52.2 °F - 41.4 °F 67% 30.07 in 10.0 mi WSW 11.5 mph 18.4 mph N/A   Overcast
3:35 AM 52.2 °F - 41.4 °F 67% 30.06 in 10.0 mi SSW 21.9 mph 33.4 mph N/A   Overcast
3:55 AM 52.7 °F - 41.4 °F 65% 30.06 in 10.0 mi South 24.2 mph 39.1 mph N/A   Overcast
4:15 AM 52.3 °F - 41.2 °F 66% 30.06 in 10.0 mi South 20.7 mph 39.1 mph N/A   Overcast
4:35 AM 52.2 °F - 41.0 °F 66% 30.07 in 10.0 mi SSW 19.6 mph 33.4 mph N/A   Overcast
4:55 AM 52.0 °F - 41.0 °F 66% 30.06 in 10.0 mi South 25.3 mph 33.4 mph N/A   Overcast
5:15 AM 52.7 °F - 41.0 °F 64% 30.07 in 10.0 mi South 24.2 mph 31.1 mph N/A   Overcast
5:35 AM 52.7 °F - 41.0 °F 64% 30.08 in 10.0 mi South 23.0 mph 32.2 mph N/A   Overcast
5:55 AM 52.3 °F - 41.0 °F 65% 30.10 in 10.0 mi WSW 9.2 mph 24.2 mph N/A   Overcast
6:15 AM 52.2 °F - 41.2 °F 66% 30.10 in 10.0 mi SW 12.7 mph 24.2 mph N/A   Overcast
6:35 AM 51.8 °F - 41.9 °F 69% 30.11 in 10.0 mi West 9.2 mph 20.7 mph N/A   Overcast
6:55 AM 52.0 °F - 41.9 °F 69% 30.12 in 10.0 mi WNW 15.0 mph 25.3 mph N/A   Overcast
7:15 AM 52.0 °F - 42.3 °F 69% 30.13 in 10.0 mi WSW 8.1 mph 21.9 mph N/A   Overcast
7:35 AM 51.8 °F - 42.4 °F 70% 30.13 in 10.0 mi WSW 6.9 mph 18.4 mph N/A Rain Light Rain
7:55 AM 50.9 °F - 43.3 °F 75% 30.14 in 10.0 mi WNW 13.8 mph 21.9 mph N/A   Light Drizzle
8:15 AM 51.6 °F - 42.8 °F 72% 30.16 in 10.0 mi WNW 17.3 mph 27.6 mph N/A   Overcast
8:35 AM 51.4 °F - 43.3 °F 74% 30.16 in 10.0 mi SW 10.4 mph - N/A Rain Light Rain
8:55 AM 51.8 °F - 43.7 °F 74% 30.18 in 10.0 mi South 10.4 mph - N/A   Overcast
9:15 AM 52.2 °F - 43.7 °F 73% 30.18 in 10.0 mi SSW 11.5 mph - N/A   Light Drizzle
9:35 AM 50.5 °F - 44.6 °F 80% 30.19 in 10.0 mi SSW 11.5 mph 18.4 mph N/A   Drizzle
9:55 AM 51.3 °F - 45.3 °F 80% 30.20 in 10.0 mi South 10.4 mph - N/A Rain Rain
10:15 AM 50.0 °F - 47.5 °F 91% 30.22 in 7.0 mi North 3.5 mph - N/A   Drizzle
10:35 AM 49.8 °F - 47.8 °F 93% 30.22 in 3.0 mi Calm Calm - 0.01 in   Heavy Drizzle
10:55 AM 50.2 °F - 48.0 °F 92% 30.24 in 5.0 mi Calm Calm - 0.02 in   Drizzle
11:15 AM 50.4 °F - 47.8 °F 91% 30.25 in 5.0 mi Calm Calm - N/A   Drizzle
11:35 AM 50.5 °F - 47.7 °F 90% 30.26 in 4.0 mi Calm Calm - 0.01 in   Drizzle
11:55 AM 50.5 °F - 48.0 °F 91% 30.27 in 4.0 mi Calm Calm - 0.02 in Rain Rain
12:15 PM 51.8 °F - 48.9 °F 90% 30.27 in 4.0 mi SSW 6.9 mph - N/A   Drizzle
12:35 PM 53.2 °F - 49.3 °F 86% 30.26 in 10.0 mi SSW 6.9 mph - N/A   Overcast
12:55 PM 54.0 °F - 49.5 °F 85% 30.26 in 10.0 mi SSW 8.1 mph - N/A   Overcast
1:15 PM 54.0 °F - 49.3 °F 84% 30.27 in 10.0 mi Calm Calm - N/A   Overcast
1:35 PM 53.6 °F - 48.7 °F 84% 30.27 in 10.0 mi Calm Calm - N/A   Overcast
1:55 PM 54.3 °F - 48.9 °F 82% 30.27 in 10.0 mi SW 9.2 mph - N/A   Overcast
2:15 PM 55.8 °F - 47.1 °F 73% 30.28 in 10.0 mi WSW 8.1 mph - N/A   Overcast
2:35 PM 55.6 °F - 42.3 °F 61% 30.29 in 10.0 mi West 10.4 mph 23.0 mph N/A   Mostly Cloudy
2:55 PM 55.8 °F - 37.4 °F 50% 30.30 in 10.0 mi West 18.4 mph 26.5 mph N/A   Mostly Cloudy
3:15 PM 58.8 °F - 38.5 °F 47% 30.30 in 10.0 mi West 13.8 mph 20.7 mph N/A   Scattered Clouds
3:35 PM 59.2 °F - 36.9 °F 43% 30.31 in 10.0 mi West 16.1 mph 27.6 mph N/A   Scattered Clouds
3:55 PM 59.4 °F - 36.9 °F 43% 30.31 in 10.0 mi West 12.7 mph 18.4 mph N/A   Clear
4:15 PM 58.5 °F - 35.6 °F 42% 30.32 in 10.0 mi West 12.7 mph - N/A   Clear
4:35 PM 58.3 °F - 37.6 °F 46% 30.34 in 10.0 mi West 9.2 mph - N/A   Clear
4:55 PM 58.5 °F - 37.6 °F 46% 30.34 in 10.0 mi West 9.2 mph - N/A   Scattered Clouds
5:15 PM 55.9 °F - 39.6 °F 54% 30.34 in 10.0 mi SW 10.4 mph - N/A   Clear
5:35 PM 54.3 °F - 40.6 °F 60% 30.34 in 10.0 mi SW 8.1 mph - N/A   Clear
5:55 PM 53.1 °F - 40.1 °F 61% 30.35 in 10.0 mi SW 9.2 mph - N/A   Clear
6:15 PM 52.9 °F - 40.1 °F 62% 30.36 in 10.0 mi SW 8.1 mph - N/A   Clear
6:35 PM 51.8 °F - 40.5 °F 65% 30.38 in 10.0 mi SW 10.4 mph - N/A   Clear
6:55 PM 50.9 °F - 40.5 °F 67% 30.39 in 10.0 mi West 4.6 mph - N/A   Clear
7:15 PM 51.3 °F - 40.8 °F 67% 30.39 in 10.0 mi WSW 5.8 mph - N/A   Clear
7:35 PM 50.9 °F - 40.1 °F 67% 30.40 in 10.0 mi West 3.5 mph - N/A   Scattered Clouds
7:55 PM 50.7 °F - 41.0 °F 69% 30.41 in 10.0 mi Calm Calm - N/A   Scattered Clouds
8:15 PM 50.7 °F - 41.7 °F 71% 30.42 in 10.0 mi West 3.5 mph - N/A   Mostly Cloudy
8:35 PM 50.7 °F - 41.2 °F 70% 30.43 in 10.0 mi Calm Calm - N/A   Scattered Clouds
8:55 PM 50.2 °F - 40.8 °F 70% 30.44 in 10.0 mi Calm Calm - N/A   Mostly Cloudy
9:15 PM 48.9 °F - 41.9 °F 77% 30.46 in 10.0 mi East 4.6 mph - N/A   Overcast
9:35 PM 49.6 °F - 41.9 °F 75% 30.46 in 10.0 mi Calm Calm - N/A   Overcast
9:55 PM 49.6 °F - 41.9 °F 75% 30.47 in 10.0 mi Calm Calm - N/A   Overcast
10:15 PM 46.4 °F 44.3 °F 41.2 °F 82% 30.47 in 10.0 mi East 4.6 mph - N/A   Scattered Clouds
10:35 PM 45.0 °F - 41.0 °F 86% 30.48 in 10.0 mi Calm Calm - N/A   Scattered Clouds
10:55 PM 45.5 °F 44.2 °F 40.5 °F 83% 30.50 in 10.0 mi SW 3.5 mph - N/A   Mostly Cloudy
11:15 PM 44.2 °F - 39.7 °F 84% 30.51 in 10.0 mi Calm Calm - N/A   Scattered Clouds
11:35 PM 45.3 °F - 40.5 °F 83% 30.51 in 10.0 mi Calm Calm - N/A   Clear
11:55 PM 45.0 °F - 40.6 °F 85% 30.52 in 10.0 mi Calm Calm - N/A   Clear